[[{"header":{"parameterUnit":"m.s-1","parameterCategory":1,"la1":30.2991,"la2":30.254,"lo1":-89.0895,"lo2":-89.0444,"dy":0.0017,"dx":0.0017,"nx":28,"ny":28,"refTime":"2024-10-18T03:00:00:Z","depth":0,"parameterNumber":2,"parameterNumberName":"U-component_of_WINDS"},"data":[0,0,0,0,0,0,0,0,0,0,0,0,0,0,0,0,0,0,0,0,0,0,0,0,0,0,0,0,0,0,0,0,0,0,0,0,0,0,0,0,0,0,0,0,0,0,0,0,0,0,0,0,0,0,0,0,0,0,-5.4335,-5.4336,0,-5.4407,-5.4408,-5.4409,-5.4183,-5.4176,-5.4169,-5.4163,-5.4242,-5.425,-5.4258,0,0,0,0,0,0,0,0,0,0,0,0,0,-5.4004,-5.4011,-5.4335,-5.4336,-5.4337,-5.4407,-5.4408,-5.4409,-5.4184,-5.4176,-5.4168,-5.416,-5.4239,-5.4249,-5.4259,0,0,0,0,0,0,0,0,0,0,0,0,0,-5.412,-5.4014,-5.4335,-5.4233,-5.4224,-5.4407,-5.4408,-5.4409,-5.4186,-5.4176,-5.4166,-5.4156,-5.4236,-5.4248,-5.4261,-5.4546,0,0,-5.43,-5.4305,0,0,0,0,0,0,0,0,-5.4113,-5.4132,-5.4247,-5.424,-5.4231,-5.4275,-5.432,-5.4455,-5.4189,-5.4201,-5.4163,-5.4151,-5.4262,-5.4272,-5.4308,-5.455,-5.4553,-5.4301,-5.4309,-5.4314,-5.4318,0,0,0,0,0,0,0,-5.4106,-5.4128,-5.4363,-5.4249,-5.4239,-5.4184,-5.4189,-5.4345,-5.4289,-5.4199,-5.4183,-5.4194,-5.4255,-5.4296,-5.4308,-5.4554,-5.43,-5.4312,-5.432,-5.4325,-5.5033,-5.5044,0,0,0,0,0,0,-5.411,-5.4122,-5.4361,-5.4366,-5.4145,-5.4199,-5.4204,-5.4272,-5.4286,-5.4278,-5.4203,-5.4183,-5.428,-5.4294,-5.431,-5.4645,-5.4314,-5.4326,-5.4333,-5.5022,-5.5035,-5.5047,0,0,0,0,0,0,-5.4104,-5.4134,-5.4358,-5.424,-5.4264,-5.4215,-5.4293,-5.4279,-5.4319,-5.4289,-5.4278,-5.4255,-5.4272,-5.4292,-5.4489,-5.4644,-5.4332,-5.4343,-5.5009,-5.5026,-5.5041,-5.5317,0,0,0,0,0,0,-5.4096,-5.4133,-5.4241,-5.4244,-5.4271,-5.4536,-5.4303,-5.4288,-5.4341,-5.4316,-5.4335,-5.4328,-5.4265,-5.4471,-5.4501,-5.4656,-5.4353,-5.4995,-5.5016,-5.5036,-5.5294,-5.5341,-5.5382,0,0,0,0,0,-5.4085,-5.4316,-5.4247,-5.4277,-5.4404,-5.4545,-5.4561,-5.4482,-5.4355,-5.4463,-5.4443,-5.4328,-5.4622,-5.4493,-5.4525,-5.4687,-5.4984,-5.501,-5.5035,-5.5274,-5.5332,-5.5381,0,0,0,0,0,0,-5.4335,-5.4315,-5.4238,-5.4477,-5.4515,-5.4506,-5.464,-5.4546,-5.4621,-5.4595,-5.4496,-5.4502,-5.4717,-5.4721,-5.4577,-5.4963,-5.4781,-5.4814,-5.4953,-5.5007,-5.505,-5.5045,-5.4364,0,0,0,0,0,-5.4417,-5.4532,-5.4509,-5.4723,-5.4745,-5.469,-5.4748,-5.4685,-5.472,-5.4735,-5.4729,-5.4769,-5.4869,-5.4938,-5.503,-5.5293,-5.5294,-5.542,-5.5464,-5.55,-5.553,-5.5669,-5.5724,-5.513,-5.513,-5.5129,0,0,-5.459,-5.4593,-5.4672,-5.4773,-5.4794,-5.4916,-5.4705,-5.4843,-5.4932,-5.4756,-5.494,-5.4938,-5.4975,-5.5207,-5.5308,-5.5217,-5.5694,-5.5532,-5.5561,-5.5571,-5.57,-5.5757,-5.5807,-5.5147,-5.5144,-5.5141,0,0,-5.4967,-5.4981,-5.516,-5.5185,-5.5219,-5.518,-5.5224,-5.523,-5.5221,-5.5405,-5.5274,-5.538,-5.5556,-5.5588,-5.5627,-5.6015,-5.5911,-5.6047,-5.6277,-5.6414,-5.6461,-5.6502,-5.664,-5.6691,-5.6077,-5.6078,-5.6078,0,-5.5177,-5.5354,-5.5264,-5.5411,-5.5459,-5.5303,-5.5483,-5.5512,-5.5576,-5.5613,-5.5509,-5.5726,-5.574,-5.5976,-5.6071,-5.6108,-5.6154,-5.6045,-5.6461,-5.6501,-5.6538,-5.6669,-5.6721,-5.6094,-5.6092,-5.609,-5.6089,0,-5.5612,-5.5737,-5.5877,-5.594,-5.6004,-5.6168,-5.6103,-5.6178,-5.6109,-5.6082,-5.6271,-5.6282,-5.6373,-5.6424,-5.6358,-5.6651,-5.6593,-5.6477,-5.6293,-5.6613,-5.6734,-5.6783,-5.6117,-5.6112,-5.6107,-5.6103,0,0,-5.6149,-5.6159,-5.6212,-5.6238,-5.6264,-5.6359,-5.6515,-5.6602,-5.6669,-5.6718,-5.6846,-5.6998,-5.6891,-5.6936,-5.6872,-5.6992,-5.7298,-5.686,-5.686,-5.6942,-5.7621,-5.7709,-5.7768,-5.7229,-5.7238,-5.7246,-5.7618,0,-5.652,-5.6785,-5.6708,-5.6976,-5.709,-5.6943,-5.7078,-5.711,-5.7089,-5.7183,-5.7159,-5.7269,-5.7118,-5.7144,-5.7257,-5.7237,-5.7433,-5.7209,-5.7349,-5.7355,-5.7345,-5.7831,-5.7924,-5.8275,-5.7665,-5.7673,-5.7678,0,-5.6987,-5.7053,-5.7331,-5.7336,-5.7381,-5.7505,-5.7578,-5.767,-5.7702,-5.7678,-5.7728,-5.764,-5.7793,-5.7608,-5.7819,-5.7669,-5.7721,-5.7721,-5.7732,-5.7742,-5.7537,-5.7855,-5.8385,-5.8438,-5.7752,-5.7746,-5.7741,0,-5.7351,-5.7509,-5.7695,-5.7722,-5.7734,-5.7824,-5.7833,-5.7854,-5.7911,-5.7975,-5.8011,-5.8094,-5.8139,-5.8205,-5.8141,-5.8012,-5.8363,-5.8172,-5.8348,-5.835,-5.8429,-5.8425,-5.8975,-5.8463,-5.8462,-5.8461,-5.846,0,-5.7773,-5.795,-5.7859,-5.7974,-5.8167,-5.8077,-5.8271,-5.8263,-5.8283,-5.8394,-5.8273,-5.838,-5.8289,-5.8389,-5.834,-5.8522,-5.8544,-5.8529,-5.8515,-5.8541,-5.8543,-5.8574,-5.8548,-5.8475,-5.8472,-5.847,-5.8467,0,-5.8213,-5.8159,-5.8352,-5.8346,-5.8349,-5.8492,-5.8486,-5.8593,-5.8562,-5.8705,-5.8733,-5.8686,-5.8797,-5.8739,-5.8855,-5.8822,-5.9058,-5.901,-5.9047,-5.9034,-5.9213,-5.9197,-5.9803,-5.9877,-5.9319,-5.9324,-5.9328,0,-5.8485,-5.8617,-5.8625,-5.869,-5.8707,-5.8813,-5.887,-5.8786,-5.8851,-5.8897,-5.8998,-5.9098,-5.9173,-5.9357,-5.9334,-5.9422,-5.9375,-5.9581,-5.9387,-5.9409,-5.9378,-5.9371,-5.9383,-5.962,-5.9627,-5.9632,-5.9636,0,-5.8975,-5.8942,-5.9027,-5.9105,-5.9176,-5.9233,-5.928,-5.9341,-5.9258,-5.9337,-5.9447,-5.9506,-5.9622,-5.9723,-5.9799,-5.9808,-5.9711,-5.9697,-5.9743,-5.9771,-5.9786,-5.978,-5.9153,-5.9684,-5.9679,-5.9676,-5.9673,-5.9671,-5.9339,-5.9449,-5.9471,-5.9571,-5.9597,-5.9644,-5.9743,-5.9724,-5.9815,-5.9902,-5.9847,-5.9978,-6.0005,-6.0096,-6.0119,-6.022,-6.0138,-6.0204,-6.022,-6.0238,-6.0262,-5.9771,-6.0234,-6.0232,-6.0231,-6.023,-6.0229,0,-5.9822,-5.9829,-5.9921,-5.999,-6.0069,-5.9967,-6.0013,-6.0086,-6.0202,-6.0236,-6.0312,-6.0439,-6.0536,-6.0521,-6.0609,-6.0693,-6.065,-6.0719,-6.0712,-6.0716,-6.0331,-6.0282,-6.0752,-6.0752,-6.0752,-6.0752,-6.0752,-6.0752,-6.0083,-6.0263,-6.0232,-6.0424,-6.0429,-6.0555,-6.059,-6.0633,-6.0659,-6.0806,-6.0885,-6.0874,-6.0888,-6.0976,-6.106,-6.1053,-6.1091,-6.1177,-6.1154,-6.0795,-6.0743,-6.0694,-6.0648,-6.1187,-6.1187,-6.153,-6.1533,-6.1536]},{"header":{"parameterUnit":"m.s-1","parameterCategory":1,"la1":30.2991,"la2":30.254,"lo1":-89.0895,"lo2":-89.0444,"dy":0.0017,"dx":0.0017,"nx":28,"ny":28,"refTime":"2024-10-18T03:00:00:Z","depth":0,"parameterNumber":3,"parameterNumberName":"V-component_of_WINDS"},"data":[0,0,0,0,0,0,0,0,0,0,0,0,0,0,0,0,0,0,0,0,0,0,0,0,0,0,0,0,0,0,0,0,0,0,0,0,0,0,0,0,0,0,0,0,0,0,0,0,0,0,0,0,0,0,0,0,0,0,-2.0756,-2.0756,0,-2.0766,-2.0766,-2.0766,-2.0802,-2.0803,-2.0804,-2.0805,-2.0812,-2.0812,-2.0811,0,0,0,0,0,0,0,0,0,0,0,0,0,-2.0763,-2.0763,-2.0756,-2.0756,-2.0756,-2.0766,-2.0766,-2.0766,-2.0802,-2.0803,-2.0804,-2.0805,-2.0812,-2.0812,-2.0811,0,0,0,0,0,0,0,0,0,0,0,0,0,-2.0765,-2.0762,-2.0756,-2.0775,-2.0777,-2.0766,-2.0766,-2.0766,-2.0802,-2.0803,-2.0804,-2.0805,-2.0813,-2.0812,-2.0811,-2.0781,0,0,-2.0808,-2.0808,0,0,0,0,0,0,0,0,-2.0765,-2.0765,-2.0772,-2.0774,-2.0776,-2.0784,-2.0771,-2.0771,-2.0801,-2.0792,-2.0805,-2.0806,-2.0802,-2.0802,-2.0801,-2.0781,-2.0781,-2.0808,-2.0808,-2.0807,-2.0807,0,0,0,0,0,0,0,-2.0765,-2.0764,-2.076,-2.0772,-2.0774,-2.0782,-2.0783,-2.0771,-2.079,-2.0793,-2.0796,-2.0797,-2.0803,-2.0802,-2.0801,-2.0782,-2.0808,-2.0807,-2.0807,-2.0807,-2.0733,-2.0732,0,0,0,0,0,0,-2.0762,-2.0764,-2.0759,-2.076,-2.0773,-2.0781,-2.0783,-2.078,-2.079,-2.0793,-2.0796,-2.0798,-2.0802,-2.0802,-2.0802,-2.0764,-2.0807,-2.0807,-2.0806,-2.0735,-2.0733,-2.0731,0,0,0,0,0,0,-2.0762,-2.0761,-2.0759,-2.0763,-2.0763,-2.0779,-2.0776,-2.078,-2.0778,-2.0792,-2.0795,-2.0791,-2.0803,-2.0803,-2.0785,-2.0765,-2.0806,-2.0805,-2.0736,-2.0734,-2.0732,-2.069,0,0,0,0,0,0,-2.0762,-2.0761,-2.0751,-2.0762,-2.0763,-2.0743,-2.0775,-2.0779,-2.0777,-2.0781,-2.0788,-2.0791,-2.0804,-2.0786,-2.0784,-2.0764,-2.0805,-2.0738,-2.0735,-2.0733,-2.0693,-2.0687,-2.0681,0,0,0,0,0,-2.0762,-2.0739,-2.0751,-2.075,-2.0751,-2.0742,-2.0742,-2.0759,-2.0775,-2.0764,-2.0772,-2.0791,-2.0768,-2.0784,-2.0782,-2.0762,-2.074,-2.0736,-2.0733,-2.0696,-2.0688,-2.0681,0,0,0,0,0,0,-2.0725,-2.0741,-2.0754,-2.0734,-2.0736,-2.0748,-2.0735,-2.075,-2.0748,-2.0751,-2.0771,-2.0772,-2.075,-2.0755,-2.0772,-2.0731,-2.0756,-2.0753,-2.0729,-2.0721,-2.0715,-2.0714,-2.0804,0,0,0,0,0,-2.0715,-2.0708,-2.0722,-2.0702,-2.0703,-2.0719,-2.0716,-2.0728,-2.0731,-2.0732,-2.0739,-2.074,-2.0733,-2.0728,-2.0722,-2.0695,-2.0695,-2.0679,-2.0673,-2.0668,-2.0664,-2.0646,-2.0638,-2.0721,-2.0721,-2.0721,0,0,-2.0693,-2.0701,-2.0695,-2.0695,-2.0699,-2.0688,-2.0719,-2.0709,-2.0701,-2.073,-2.0713,-2.0718,-2.072,-2.0696,-2.0686,-2.0699,-2.0641,-2.0664,-2.066,-2.0658,-2.0642,-2.0634,-2.0627,-2.0719,-2.0719,-2.0719,0,0,-2.0647,-2.0654,-2.0637,-2.0639,-2.0644,-2.0654,-2.065,-2.0659,-2.0663,-2.0647,-2.0667,-2.0658,-2.0646,-2.0646,-2.0644,-2.0596,-2.0611,-2.0593,-2.0561,-2.0543,-2.0536,-2.053,-2.0509,-2.0502,-2.059,-2.059,-2.0589,0,-2.0619,-2.0606,-2.0626,-2.0613,-2.0611,-2.0637,-2.0619,-2.062,-2.0622,-2.0619,-2.0634,-2.0617,-2.0621,-2.0596,-2.0583,-2.0583,-2.0576,-2.0592,-2.0536,-2.053,-2.0525,-2.0505,-2.0498,-2.0587,-2.0587,-2.0588,-2.0588,0,-2.057,-2.056,-2.0546,-2.0547,-2.0543,-2.0528,-2.0543,-2.0537,-2.0549,-2.0557,-2.0537,-2.0543,-2.0537,-2.0532,-2.0545,-2.0507,-2.0515,-2.0533,-2.0558,-2.0514,-2.0496,-2.0489,-2.0584,-2.0585,-2.0585,-2.0586,0,0,-2.0501,-2.0512,-2.0506,-2.0505,-2.0511,-2.0503,-2.0487,-2.0482,-2.0475,-2.0475,-2.046,-2.0448,-2.0464,-2.0462,-2.0474,-2.0459,-2.0415,-2.0478,-2.0478,-2.0463,-2.037,-2.0354,-2.0345,-2.0426,-2.0425,-2.0424,-2.0368,0,-2.0455,-2.0429,-2.0445,-2.0416,-2.0405,-2.0429,-2.0415,-2.0416,-2.0422,-2.0413,-2.042,-2.041,-2.0433,-2.0431,-2.0418,-2.0423,-2.0396,-2.0428,-2.0409,-2.0408,-2.0405,-2.0336,-2.032,-2.0268,-2.0362,-2.0361,-2.036,0,-2.0398,-2.0395,-2.0364,-2.0369,-2.0366,-2.0353,-2.0347,-2.0339,-2.0339,-2.0345,-2.0341,-2.0356,-2.0339,-2.0365,-2.0339,-2.0361,-2.0354,-2.0355,-2.0354,-2.035,-2.0379,-2.0328,-2.0252,-2.0243,-2.0349,-2.035,-2.0351,0,-2.0346,-2.0335,-2.0314,-2.0313,-2.032,-2.0309,-2.0311,-2.0313,-2.0307,-2.0303,-2.0298,-2.0292,-2.0287,-2.028,-2.0292,-2.0311,-2.0263,-2.0291,-2.0264,-2.0263,-2.0251,-2.0251,-2.0169,-2.0252,-2.0252,-2.0252,-2.0252,0,-2.0291,-2.0271,-2.029,-2.0277,-2.0254,-2.0272,-2.0248,-2.0252,-2.0253,-2.024,-2.0261,-2.0247,-2.0265,-2.0253,-2.0262,-2.0237,-2.0236,-2.0237,-2.0239,-2.0234,-2.0233,-2.0227,-2.023,-2.025,-2.025,-2.0251,-2.0251,0,-2.0229,-2.0242,-2.022,-2.0227,-2.0229,-2.0211,-2.0216,-2.0203,-2.0211,-2.0193,-2.019,-2.0201,-2.0187,-2.0199,-2.0186,-2.0192,-2.0157,-2.0166,-2.0156,-2.0158,-2.0128,-2.0129,-2.0038,-2.0025,-2.0119,-2.0118,-2.0117,0,-2.0192,-2.0176,-2.0181,-2.0174,-2.0174,-2.0163,-2.0157,-2.0173,-2.0166,-2.0164,-2.015,-2.0138,-2.0129,-2.0105,-2.0111,-2.01,-2.0107,-2.0076,-2.0105,-2.0099,-2.0102,-2.0101,-2.0098,-2.0069,-2.0068,-2.0067,-2.0066,0,-2.0123,-2.0129,-2.0121,-2.0113,-2.0105,-2.01,-2.0097,-2.0089,-2.0106,-2.0096,-2.0082,-2.0075,-2.0061,-2.0047,-2.0038,-2.0038,-2.0053,-2.0057,-2.0049,-2.0041,-2.0035,-2.0034,-2.0136,-2.0058,-2.0059,-2.006,-2.006,-2.006,-2.0069,-2.0055,-2.0056,-2.0044,-2.0043,-2.0039,-2.0026,-2.0031,-2.002,-2.001,-2.002,-2.0002,-2.0,-1.9989,-1.9987,-1.9972,-1.9984,-1.9974,-1.9971,-1.9967,-1.9961,-2.004,-1.997,-1.9971,-1.9971,-1.9971,-1.9971,0,-1.9998,-1.9999,-1.9989,-1.9982,-1.9973,-1.999,-1.9986,-1.9975,-1.996,-1.9957,-1.9947,-1.9929,-1.9916,-1.992,-1.9907,-1.9894,-1.99,-1.9889,-1.9889,-1.9888,-1.9953,-1.9959,-1.9884,-1.9884,-1.9884,-1.9884,-1.9884,-1.9884,-1.996,-1.9936,-1.9942,-1.9916,-1.9917,-1.99,-1.9896,-1.989,-1.9888,-1.9867,-1.9856,-1.9859,-1.9858,-1.9845,-1.9832,-1.9833,-1.9826,-1.9812,-1.9815,-1.9875,-1.9884,-1.9892,-1.9897,-1.9811,-1.9811,-1.9751,-1.975,-1.975]}]]